| time (UTC) | temp C | wind direction | speed KPH | gust KPH | rain 1hr cm | rain 24hr cm | rain mn cm | humidity % | barometer mb |
| 20260504140609 | 11 | 0 | 0.0 | 3.2 | 0.00 | 0.00 | 0.00 | 55 | 1019.8 |
| 20260504130513 | 8 | 0 | 0.0 | 8.0 | 0.00 | 0.00 | 0.00 | 61 | 1020.4 |
| 20260504120114 | 6 | 0 | 0.0 | 1.6 | 0.00 | 0.00 | 0.00 | 66 | 1020.4 |
| 20260504110512 | 5 | 0 | 0.0 | 3.2 | 0.00 | 0.00 | 0.00 | 71 | 1020.2 |
| 20260504100111 | 4 | 0 | 0.0 | 1.6 | 0.00 | 0.00 | 0.00 | 70 | 1020.3 |
| 20260504081711 | 4 | 0 | 0.0 | 1.6 | 0.00 | 0.00 | 0.00 | 69 | 1020.8 |
| 20260504080911 | 5 | 0 | 0.0 | 1.6 | 0.00 | 0.00 | 0.00 | 69 | 1020.9 |
| 20260504080117 | 5 | 0 | 0.0 | 1.6 | 0.00 | 0.00 | 0.00 | 68 | 1020.9 |
| 20260504060129 | 6 | 0 | 0.0 | 4.8 | 0.00 | 0.00 | 0.00 | 62 | 1021.3 |
| 20260504050527 | 6 | 247 | 1.6 | 8.0 | 0.00 | 0.00 | 0.00 | 60 | 1021.8 |
| 20260504045729 | 6 | 0 | 0.0 | 4.8 | 0.00 | 0.00 | 0.00 | 60 | 1021.8 |
| 20260504044929 | 6 | 0 | 0.0 | 4.8 | 0.00 | 0.00 | 0.00 | 60 | 1021.9 |
| 20260504044128 | 7 | 0 | 0.0 | 4.8 | 0.00 | 0.00 | 0.00 | 59 | 1021.8 |
| 20260504043328 | 6 | 0 | 0.0 | 6.4 | 0.00 | 0.00 | 0.00 | 60 | 1021.8 |
| 20260504042529 | 6 | 0 | 0.0 | 3.2 | 0.00 | 0.00 | 0.00 | 60 | 1021.7 |
| 20260504041740 | 6 | 0 | 0.0 | 4.8 | 0.00 | 0.00 | 0.00 | 60 | 1021.7 |
| 20260504040929 | 6 | 0 | 0.0 | 6.4 | 0.00 | 0.00 | 0.00 | 60 | 1021.7 |
| 20260504040129 | 6 | 0 | 0.0 | 3.2 | 0.00 | 0.00 | 0.00 | 60 | 1021.8 |
| 20260504035329 | 6 | 0 | 0.0 | 4.8 | 0.00 | 0.00 | 0.00 | 60 | 1021.7 |
| 20260504034526 | 6 | 0 | 0.0 | 1.6 | 0.00 | 0.00 | 0.00 | 60 | 1021.7 |
| 20260504033738 | 6 | 0 | 0.0 | 1.6 | 0.00 | 0.00 | 0.00 | 59 | 1021.7 |
| 20260504032926 | 7 | 0 | 0.0 | 0.0 | 0.00 | 0.00 | 0.00 | 58 | 1021.7 |
| 20260504032129 | 7 | 0 | 0.0 | 1.6 | 0.00 | 0.00 | 0.00 | 57 | 1021.7 |
| 20260504031327 | 7 | 239 | 1.6 | 9.7 | 0.00 | 0.00 | 0.00 | 57 | 1021.8 |
| 20260504030527 | 7 | 0 | 0.0 | 0.0 | 0.00 | 0.00 | 0.00 | 57 | 1021.8 |
| 20260504025729 | 7 | 0 | 0.0 | 3.2 | 0.00 | 0.00 | 0.00 | 56 | 1021.8 |
| 20260504024930 | 7 | 249 | 1.6 | 9.7 | 0.00 | 0.00 | 0.00 | 56 | 1021.8 |
| 20260504024135 | 7 | 0 | 0.0 | 4.8 | 0.00 | 0.00 | 0.00 | 56 | 1021.8 |
| 20260504023327 | 7 | 0 | 0.0 | 4.8 | 0.00 | 0.00 | 0.00 | 56 | 1021.9 |
| 20260504022526 | 7 | 0 | 0.0 | 3.2 | 0.00 | 0.00 | 0.00 | 56 | 1021.9 |
| 20260504021745 | 7 | 0 | 0.0 | 4.8 | 0.00 | 0.00 | 0.00 | 55 | 1021.9 |
| 20260504020926 | 7 | 0 | 0.0 | 3.2 | 0.00 | 0.00 | 0.00 | 55 | 1021.9 |
| 20260504015901 | 7 | 0 | 0.0 | 3.2 | 0.00 | 0.00 | 0.00 | 55 | 1021.9 |
| 20260504015101 | 7 | 0 | 0.0 | 0.0 | 0.00 | 0.00 | 0.00 | 54 | 1021.9 |
| 20260504014304 | 7 | 0 | 0.0 | 6.4 | 0.00 | 0.00 | 0.00 | 54 | 1021.8 |
| 20260504013503 | 7 | 0 | 0.0 | 1.6 | 0.00 | 0.00 | 0.00 | 53 | 1021.7 |
| 20260504012702 | 8 | 0 | 0.0 | 4.8 | 0.00 | 0.00 | 0.00 | 53 | 1021.7 |
| 20260504011901 | 8 | 0 | 0.0 | 1.6 | 0.00 | 0.00 | 0.00 | 52 | 1021.7 |
| 20260504011101 | 8 | 0 | 0.0 | 3.2 | 0.00 | 0.00 | 0.00 | 52 | 1021.8 |
| 20260504010301 | 8 | 0 | 0.0 | 3.2 | 0.00 | 0.00 | 0.00 | 51 | 1021.8 |
| 20260504005502 | 8 | 0 | 0.0 | 6.4 | 0.00 | 0.00 | 0.00 | 51 | 1021.8 |
| 20260504004701 | 8 | 0 | 0.0 | 1.6 | 0.00 | 0.00 | 0.00 | 50 | 1021.8 |
| 20260504003901 | 8 | 0 | 0.0 | 3.2 | 0.00 | 0.00 | 0.00 | 50 | 1021.7 |
| 20260504003101 | 8 | 0 | 0.0 | 4.8 | 0.00 | 0.00 | 0.00 | 49 | 1021.6 |
| 20260504002301 | 9 | 0 | 0.0 | 6.4 | 0.00 | 0.00 | 0.00 | 49 | 1021.6 |
| 20260504001501 | 9 | 0 | 0.0 | 0.0 | 0.00 | 0.00 | 0.00 | 48 | 1021.6 |
| 20260504000701 | 9 | 0 | 0.0 | 3.2 | 0.00 | 0.00 | 0.00 | 48 | 1021.6 |
| 20260503235901 | 9 | 0 | 0.0 | 8.0 | 0.00 | 0.00 | 0.00 | 47 | 1021.5 |
| 20260503235102 | 10 | 0 | 0.0 | 9.7 | 0.00 | 0.00 | 0.00 | 47 | 1021.5 |
| 20260503234301 | 10 | 0 | 0.0 | 12.9 | 0.00 | 0.00 | 0.00 | 46 | 1021.5 |
| 20260503233501 | 10 | 0 | 0.0 | 11.3 | 0.00 | 0.00 | 0.00 | 46 | 1021.5 |
| 20260503232701 | 10 | 226 | 3.2 | 9.7 | 0.00 | 0.00 | 0.00 | 45 | 1021.5 |
| 20260503231901 | 10 | 0 | 0.0 | 4.8 | 0.00 | 0.00 | 0.00 | 45 | 1021.4 |
| 20260503231101 | 10 | 0 | 0.0 | 6.4 | 0.00 | 0.00 | 0.00 | 43 | 1021.4 |
| 20260503230303 | 10 | 223 | 1.6 | 8.0 | 0.00 | 0.00 | 0.00 | 44 | 1021.4 |
| 20260503225501 | 11 | 0 | 0.0 | 4.8 | 0.00 | 0.00 | 0.00 | 44 | 1021.4 |
| 20260503224701 | 11 | 251 | 1.6 | 8.0 | 0.00 | 0.00 | 0.00 | 43 | 1021.4 |
| 20260503223901 | 11 | 0 | 0.0 | 9.7 | 0.00 | 0.00 | 0.00 | 43 | 1021.5 |
| 20260503223101 | 11 | 0 | 0.0 | 6.4 | 0.00 | 0.00 | 0.00 | 42 | 1021.4 |
| 20260503222308 | 11 | 249 | 4.8 | 12.9 | 0.00 | 0.00 | 0.00 | 40 | 1021.5 |
| 20260503221501 | 11 | 0 | 0.0 | 4.8 | 0.00 | 0.00 | 0.00 | 42 | 1021.5 |
| 20260503220701 | 11 | 268 | 1.6 | 12.9 | 0.00 | 0.00 | 0.00 | 41 | 1021.5 |
| 20260503215901 | 11 | 0 | 0.0 | 11.3 | 0.00 | 0.00 | 0.00 | 42 | 1021.4 |
| 20260503215102 | 12 | 285 | 3.2 | 8.0 | 0.00 | 0.00 | 0.00 | 41 | 1021.5 |
| 20260503214301 | 11 | 269 | 1.6 | 4.8 | 0.00 | 0.00 | 0.00 | 42 | 1021.4 |
| 20260503213502 | 11 | 0 | 0.0 | 3.2 | 0.00 | 0.00 | 0.00 | 42 | 1021.5 |
| 20260503212701 | 11 | 0 | 0.0 | 9.7 | 0.00 | 0.00 | 0.00 | 42 | 1021.3 |
| 20260503211901 | 11 | 297 | 1.6 | 9.7 | 0.00 | 0.00 | 0.00 | 42 | 1021.4 |
| 20260503211101 | 11 | 0 | 0.0 | 6.4 | 0.00 | 0.00 | 0.00 | 43 | 1021.4 |
| 20260503210304 | 11 | 0 | 0.0 | 6.4 | 0.00 | 0.00 | 0.00 | 42 | 1021.4 |
| 20260503205500 | 11 | 0 | 0.0 | 9.7 | 0.00 | 0.00 | 0.00 | 42 | 1021.4 |
| 20260503204702 | 11 | 0 | 0.0 | 16.1 | 0.00 | 0.00 | 0.00 | 42 | 1021.4 |
| 20260503203903 | 11 | 175 | 1.6 | 9.7 | 0.00 | 0.00 | 0.00 | 43 | 1021.5 |
| 20260503202758 | 11 | 291 | 3.2 | 8.0 | 0.00 | 0.00 | 0.00 | 41 | 1021.7 |
| 20260503202000 | 12 | 0 | 0.0 | 11.3 | 0.00 | 0.00 | 0.00 | 39 | 1021.7 |
| 20260503201158 | 12 | 0 | 0.0 | 14.5 | 0.00 | 0.00 | 0.00 | 40 | 1021.7 |
| 20260503200358 | 12 | 0 | 0.0 | 19.3 | 0.00 | 0.00 | 0.00 | 40 | 1021.8 |
| 20260503195558 | 12 | 0 | 0.0 | 4.8 | 0.00 | 0.00 | 0.00 | 40 | 1022.0 |
| 20260503194758 | 12 | 0 | 0.0 | 4.8 | 0.00 | 0.00 | 0.00 | 42 | 1022.1 |
| 20260503193958 | 11 | 264 | 1.6 | 9.7 | 0.00 | 0.00 | 0.00 | 42 | 1022.2 |
| 20260503193158 | 11 | 260 | 1.6 | 8.0 | 0.00 | 0.00 | 0.00 | 41 | 1022.2 |
| 20260503192359 | 11 | 0 | 0.0 | 8.0 | 0.00 | 0.00 | 0.00 | 41 | 1022.2 |
| 20260503191559 | 11 | 334 | 3.2 | 8.0 | 0.00 | 0.00 | 0.00 | 41 | 1022.5 |
| 20260503190000 | 10 | 283 | 6.4 | 11.3 | 0.00 | 0.00 | 0.00 | 45 | 1022.9 |
| 20260503185159 | 10 | 245 | 3.2 | 12.9 | 0.00 | 0.00 | 0.00 | 45 | 1022.9 |
| 20260503184357 | 10 | 0 | 0.0 | 16.1 | 0.00 | 0.00 | 0.00 | 46 | 1023.0 |
| 20260503183557 | 10 | 0 | 0.0 | 9.7 | 0.00 | 0.00 | 0.00 | 44 | 1023.0 |
| 20260503182757 | 11 | 242 | 3.2 | 14.5 | 0.00 | 0.00 | 0.00 | 42 | 1023.1 |
| 20260503181957 | 12 | 0 | 0.0 | 14.5 | 0.00 | 0.00 | 0.00 | 41 | 1023.0 |
| 20260503181157 | 12 | 286 | 4.8 | 8.0 | 0.00 | 0.00 | 0.00 | 42 | 1023.0 |
| 20260503180358 | 11 | 265 | 3.2 | 8.0 | 0.00 | 0.00 | 0.00 | 42 | 1023.0 |
| 20260503175558 | 11 | 246 | 1.6 | 6.4 | 0.00 | 0.00 | 0.00 | 45 | 1023.1 |
| 20260503174758 | 11 | 0 | 0.0 | 11.3 | 0.00 | 0.00 | 0.00 | 41 | 1023.2 |
| 20260503173959 | 11 | 263 | 1.6 | 9.7 | 0.00 | 0.00 | 0.00 | 42 | 1023.3 |
| 20260503173158 | 11 | 218 | 1.6 | 22.5 | 0.00 | 0.00 | 0.00 | 42 | 1023.4 |
| 20260503172358 | 11 | 0 | 0.0 | 16.1 | 0.00 | 0.00 | 0.00 | 45 | 1023.3 |
| 20260503171558 | 10 | 352 | 1.6 | 8.0 | 0.00 | 0.00 | 0.00 | 44 | 1023.4 |
| 20260503170758 | 10 | 0 | 0.0 | 6.4 | 0.00 | 0.00 | 0.00 | 44 | 1023.4 |
| 20260503150758 | 7 | 44 | 3.2 | 14.5 | 0.00 | 0.00 | 0.00 | 48 | 1024.4 |